Ithaca, NY

2:33 AM EDT on April 29, 2017 (GMT -0400)
Tompkins County

Weather History for KITH - May, 2013

Change the Weather History Date:

Tuesday, May 21, 2013

  Actual Average Record
Temperature  
Mean Temperature 74 °F -  
Max Temperature 88 °F 68 °F 90 °F (1934)
Min Temperature 59 °F 46 °F 31 °F (1967)
Cooling Degree Days 8    
Growing Degree Days 24 (Base 50)    
Moisture  
Dew Point 63 °F    
Average Humidity 73    
Maximum Humidity 97    
Minimum Humidity 38    
Precipitation  
Precipitation 0.28 in - - ()
Sea Level Pressure  
Sea Level Pressure 29.87 in    
Wind  
Wind Speed 6 mph (SSW)    
Max Wind Speed 21 mph    
Max Gust Speed 24 mph    
Visibility 9 miles    
Events Rain , Thunderstorm    
Averages and records for this station are not official NWS values.
T = Trace of Precipitation, MM = Missing Value Source: NWS Daily Summary

Daily Weather History Graph

Daily Weather History Graph

Search for Another Location

Airport or City:

Trip Planner

Search our weather history database for the weather conditions in past years. The results will help you decide how hot, cold, wet, or windy it might be!

Date:

Astronomy

May. 21, 2013 Rise Set
Actual Time 5:38 AM EDT 8:27 PM EDT
Civil Twilight 5:05 AM EDT 9:00 PM EDT
Nautical Twilight 4:23 AM EDT 9:42 PM EDT
Astronomical Twilight 3:35 AM EDT 10:30 PM EDT
Moon 4:34 PM EDT (5/21) 3:09 AM EDT (5/21)
Length of Visible Light 15h 54m
Length of Day
14h 48m
Waxing Gibbous, 84% of the Moon is Illuminated
May 21
Waxing Gibbous
May 25
Full
May 31
Last Quarter
Jun 8
New
Jun 16
First Quarter

Hourly Weather History & Observations

Time (EDT) Temp. Heat Index Dew Point Humidity Pressure Visibility Wind Dir Wind Speed Gust Speed Precip Events Conditions
12:56 AM 70.0 °F - 61.9 °F 75% 29.94 in 10.0 mi South 6.9 mph - N/A   Mostly Cloudy
1:56 AM 68.9 °F - 63.0 °F 81% 29.91 in 10.0 mi South 8.1 mph - N/A   Partly Cloudy
2:56 AM 68.0 °F - 63.0 °F 84% 29.89 in 10.0 mi South 6.9 mph - N/A   Clear
3:48 AM 68.0 °F - 62.6 °F 83% 29.94 in 10.0 mi Calm Calm - N/A   Overcast
3:56 AM 68.0 °F - 63.0 °F 84% 29.92 in 10.0 mi Calm Calm - N/A   Overcast
4:18 AM 66.2 °F - 62.6 °F 88% 29.95 in 10.0 mi Calm Calm - N/A   Mostly Cloudy
4:25 AM 64.4 °F - 62.6 °F 94% 29.95 in 10.0 mi Calm Calm - N/A   Mostly Cloudy
4:33 AM 64.4 °F - 62.6 °F 94% 29.95 in 10.0 mi Calm Calm - N/A   Partly Cloudy
4:56 AM 63.0 °F - 61.0 °F 93% 29.92 in 9.0 mi SSE 3.5 mph - N/A   Clear
5:56 AM 59.9 °F - 59.0 °F 97% 29.93 in 4.0 mi SE 3.5 mph - N/A   Clear
6:12 AM 62.6 °F - 60.8 °F 94% 29.95 in 10.0 mi SSE 3.5 mph - N/A   Clear
6:56 AM 66.9 °F - 63.0 °F 87% 29.93 in 10.0 mi South 5.8 mph - N/A   Clear
7:56 AM 72.0 °F - 63.9 °F 76% 29.94 in 10.0 mi South 4.6 mph - N/A   Clear
8:56 AM 75.9 °F - 64.9 °F 69% 29.93 in 10.0 mi SSW 8.1 mph - N/A   Clear
9:56 AM 79.9 °F - 65.8 °F 62% 29.92 in 7.0 mi WSW 6.9 mph - N/A   Scattered Clouds
10:56 AM 81.9 °F 83.9 °F 65.8 °F 58% 29.91 in 10.0 mi Variable 3.5 mph - N/A   Scattered Clouds
11:56 AM 83.8 °F 86.5 °F 66.9 °F 57% 29.88 in 10.0 mi Variable 3.5 mph - N/A   Mostly Cloudy
12:56 PM 84.9 °F 86.1 °F 63.9 °F 49% 29.87 in 10.0 mi West 5.8 mph - N/A   Mostly Cloudy
1:56 PM 86.0 °F 86.8 °F 63.0 °F 46% 29.85 in 10.0 mi SW 10.4 mph - N/A   Mostly Cloudy
2:56 PM 84.9 °F 85.9 °F 63.0 °F 48% 29.82 in 10.0 mi WSW 8.1 mph - N/A   Mostly Cloudy
3:56 PM 88.0 °F 87.9 °F 61.0 °F 40% 29.81 in 10.0 mi SSW 16.1 mph - N/A   Scattered Clouds
4:56 PM 88.9 °F 88.5 °F 59.9 °F 38% 29.80 in 10.0 mi SW 11.5 mph 23.0 mph N/A   Scattered Clouds
5:56 PM 86.9 °F 87.0 °F 61.0 °F 42% 29.78 in 10.0 mi SSW 8.1 mph - N/A   Partly Cloudy
6:56 PM 83.8 °F 84.3 °F 61.9 °F 47% 29.77 in 10.0 mi South 6.9 mph - N/A   Scattered Clouds
7:56 PM 79.9 °F - 63.0 °F 56% 29.76 in 10.0 mi South 3.5 mph - 0.00 in   Mostly Cloudy
8:56 PM 77.9 °F - 63.0 °F 60% 29.78 in 10.0 mi NW 20.7 mph 24.2 mph 0.00 in   Scattered Clouds
9:15 PM 71.6 °F - 60.8 °F 69% 29.82 in 10.0 mi North 6.9 mph 17.3 mph N/A   Mostly Cloudy
9:56 PM 70.0 °F - 61.0 °F 73% 29.79 in 10.0 mi East 8.1 mph - N/A   Mostly Cloudy
10:09 PM 69.8 °F - 62.6 °F 78% 29.80 in 10.0 mi East 9.2 mph - N/A Thunderstorm Mostly Cloudy
10:56 PM 66.9 °F - 63.9 °F 90% 29.84 in 4.0 mi NW 6.9 mph - 0.18 in Rain , Thunderstorm Heavy Thunderstorms and Rain
11:04 PM 66.2 °F - 64.4 °F 94% 29.85 in 5.0 mi NW 8.1 mph - 0.04 in Rain , Thunderstorm Thunderstorms and Rain
11:43 PM 66.2 °F - 64.4 °F 94% 29.84 in 9.0 mi NE 4.6 mph - 0.09 in Rain Light Rain
11:56 PM 65.8 °F - 63.9 °F 93% 29.83 in 8.0 mi South 3.5 mph - 0.10 in Rain Light Rain